| time (UTC) | temp F | wind direction | speed MPH | gust MPH | rain 1hr in | rain 24hr in | rain mn in | humidity % | barometer mb |
| 20260504050016 | 61 | 128 | 3.0 | 8.0 | 0.00 | 0.00 | 0.00 | 47 | 1014.7 |
| 20260504045056 | 61 | 124 | 3.0 | 11.0 | 0.00 | 0.00 | 0.00 | 47 | 1014.9 |
| 20260504044016 | 60 | 116 | 2.0 | 6.0 | 0.00 | 0.00 | 0.00 | 47 | 1015.1 |
| 20260504043015 | 60 | 120 | 2.0 | 7.0 | 0.00 | 0.00 | 0.00 | 47 | 1015.3 |
| 20260504042036 | 61 | 133 | 2.0 | 4.0 | 0.00 | 0.00 | 0.00 | 46 | 1015.4 |
| 20260504041015 | 61 | 123 | 1.0 | 6.0 | 0.00 | 0.00 | 0.00 | 45 | 1015.5 |
| 20260504040016 | 61 | 113 | 1.0 | 5.0 | 0.00 | 0.00 | 0.00 | 44 | 1015.6 |
| 20260504035016 | 61 | 120 | 1.0 | 4.0 | 0.00 | 0.00 | 0.00 | 43 | 1015.8 |
| 20260504034016 | 62 | 121 | 2.0 | 4.0 | 0.00 | 0.00 | 0.00 | 43 | 1015.8 |
| 20260504033036 | 62 | 145 | 2.0 | 4.0 | 0.00 | 0.00 | 0.00 | 42 | 1015.8 |
| 20260504032016 | 62 | 120 | 1.0 | 3.0 | 0.00 | 0.00 | 0.00 | 42 | 1015.9 |
| 20260504031015 | 62 | 122 | 2.0 | 5.0 | 0.00 | 0.00 | 0.00 | 42 | 1016.0 |
| 20260504030036 | 62 | 119 | 1.0 | 3.0 | 0.00 | 0.00 | 0.00 | 41 | 1015.9 |
| 20260504025015 | 62 | 116 | 2.0 | 4.0 | 0.00 | 0.00 | 0.00 | 41 | 1015.9 |
| 20260504024036 | 62 | 115 | 2.0 | 4.0 | 0.00 | 0.00 | 0.00 | 41 | 1016.0 |
| 20260504023015 | 62 | 108 | 1.0 | 3.0 | 0.00 | 0.00 | 0.00 | 41 | 1015.9 |
| 20260504022016 | 62 | 103 | 1.0 | 3.0 | 0.00 | 0.00 | 0.00 | 41 | 1015.8 |
| 20260504021015 | 62 | 123 | 1.0 | 4.0 | 0.00 | 0.00 | 0.00 | 41 | 1015.7 |
| 20260504020016 | 62 | 121 | 0.0 | 5.0 | 0.00 | 0.00 | 0.00 | 41 | 1015.7 |
| 20260504015016 | 62 | 114 | 1.0 | 3.0 | 0.00 | 0.00 | 0.00 | 41 | 1015.5 |
| 20260504014016 | 62 | 113 | 1.0 | 4.0 | 0.00 | 0.00 | 0.00 | 41 | 1015.3 |
| 20260504013016 | 62 | 103 | 1.0 | 3.0 | 0.00 | 0.00 | 0.00 | 41 | 1015.1 |
| 20260504012016 | 62 | 111 | 1.0 | 2.0 | 0.00 | 0.00 | 0.00 | 41 | 1015.2 |
| 20260504011016 | 63 | 132 | 1.0 | 3.0 | 0.00 | 0.00 | 0.00 | 41 | 1015.4 |
| 20260504010016 | 63 | 129 | 1.0 | 4.0 | 0.00 | 0.00 | 0.00 | 40 | 1015.5 |
| 20260504005016 | 63 | 140 | 0.0 | 3.0 | 0.00 | 0.00 | 0.00 | 40 | 1015.6 |
| 20260504004016 | 64 | 206 | 0.0 | 3.0 | 0.00 | 0.00 | 0.00 | 39 | 1015.6 |
| 20260504003015 | 64 | 99 | 0.0 | 2.0 | 0.00 | 0.00 | 0.00 | 38 | 1015.4 |
| 20260504002016 | 64 | 128 | 0.0 | 3.0 | 0.00 | 0.00 | 0.00 | 37 | 1015.4 |
| 20260504001016 | 65 | 135 | 1.0 | 4.0 | 0.00 | 0.00 | 0.00 | 37 | 1015.6 |
| 20260504000016 | 65 | 123 | 1.0 | 5.0 | 0.00 | 0.00 | 0.00 | 36 | 1015.7 |
| 20260503235016 | 65 | 143 | 2.0 | 7.0 | 0.00 | 0.00 | 0.00 | 36 | 1015.9 |
| 20260503234016 | 66 | 153 | 1.0 | 5.0 | 0.00 | 0.00 | 0.00 | 36 | 1016.0 |
| 20260503233016 | 66 | 146 | 1.0 | 5.0 | 0.00 | 0.00 | 0.00 | 36 | 1016.1 |
| 20260503232036 | 66 | 255 | 0.0 | 4.0 | 0.00 | 0.00 | 0.00 | 37 | 1016.1 |
| 20260503231036 | 66 | 134 | 2.0 | 7.0 | 0.00 | 0.00 | 0.00 | 35 | 1016.1 |
| 20260503230016 | 67 | 241 | 2.0 | 5.0 | 0.00 | 0.00 | 0.00 | 36 | 1016.2 |
| 20260503225016 | 68 | 128 | 3.0 | 7.0 | 0.00 | 0.00 | 0.00 | 35 | 1016.2 |
| 20260503224036 | 68 | 55 | 1.0 | 4.0 | 0.00 | 0.01 | 0.00 | 36 | 1016.1 |
| 20260503223016 | 67 | 0 | 1.0 | 4.0 | 0.00 | 0.02 | 0.00 | 37 | 1016.4 |
| 20260503222016 | 67 | 141 | 1.0 | 4.0 | 0.00 | 0.02 | 0.00 | 36 | 1016.5 |
| 20260503221016 | 66 | 283 | 1.0 | 5.0 | 0.00 | 0.02 | 0.00 | 37 | 1016.7 |
| 20260503220036 | 66 | 127 | 5.0 | 8.0 | 0.00 | 0.02 | 0.00 | 35 | 1016.8 |
| 20260503215016 | 67 | 321 | 3.0 | 8.0 | 0.00 | 0.02 | 0.00 | 35 | 1016.9 |
| 20260503214016 | 67 | 274 | 1.0 | 3.0 | 0.00 | 0.02 | 0.00 | 35 | 1017.0 |
| 20260503213536 | 67 | 302 | 1.0 | 5.0 | 0.00 | 0.02 | 0.00 | 35 | 1017.0 |
| 20260503212516 | 67 | 161 | 2.0 | 8.0 | 0.00 | 0.02 | 0.00 | 34 | 1017.3 |
| 20260503211515 | 67 | 294 | 3.0 | 7.0 | 0.00 | 0.02 | 0.00 | 35 | 1017.5 |
| 20260503210516 | 67 | 287 | 2.0 | 7.0 | 0.00 | 0.02 | 0.00 | 34 | 1017.6 |
| 20260503205515 | 68 | 201 | 2.0 | 5.0 | 0.00 | 0.02 | 0.00 | 35 | 1017.8 |
| 20260503204516 | 67 | 304 | 1.0 | 4.0 | 0.00 | 0.02 | 0.00 | 34 | 1017.9 |
| 20260503203515 | 67 | 310 | 2.0 | 4.0 | 0.00 | 0.02 | 0.00 | 36 | 1017.9 |
| 20260503202516 | 67 | 286 | 2.0 | 7.0 | 0.00 | 0.02 | 0.00 | 35 | 1018.3 |
| 20260503201515 | 67 | 285 | 2.0 | 3.0 | 0.00 | 0.02 | 0.00 | 35 | 1018.4 |
| 20260503200516 | 66 | 99 | 1.0 | 7.0 | 0.00 | 0.02 | 0.00 | 36 | 1018.7 |
| 20260503195515 | 66 | 273 | 3.0 | 8.0 | 0.00 | 0.02 | 0.00 | 35 | 1018.9 |
| 20260503194516 | 66 | 319 | 2.0 | 5.0 | 0.00 | 0.02 | 0.00 | 35 | 1019.0 |
| 20260503193515 | 67 | 278 | 2.0 | 6.0 | 0.00 | 0.02 | 0.00 | 36 | 1019.1 |
| 20260503192516 | 67 | 305 | 2.0 | 8.0 | 0.00 | 0.02 | 0.00 | 35 | 1019.2 |
| 20260503191516 | 66 | 310 | 1.0 | 5.0 | 0.00 | 0.02 | 0.00 | 37 | 1019.2 |
| 20260503190516 | 65 | 241 | 1.0 | 3.0 | 0.00 | 0.02 | 0.00 | 37 | 1019.4 |
| 20260503185517 | 64 | 301 | 2.0 | 6.0 | 0.00 | 0.02 | 0.00 | 37 | 1019.7 |
| 20260503184516 | 63 | 342 | 2.0 | 4.0 | 0.00 | 0.02 | 0.00 | 39 | 1019.8 |
| 20260503183516 | 63 | 346 | 2.0 | 5.0 | 0.00 | 0.02 | 0.00 | 38 | 1020.0 |
| 20260503182516 | 63 | 293 | 2.0 | 6.0 | 0.00 | 0.02 | 0.00 | 38 | 1020.0 |
| 20260503181516 | 63 | 300 | 2.0 | 5.0 | 0.00 | 0.02 | 0.00 | 37 | 1020.0 |
| 20260503180536 | 62 | 314 | 1.0 | 5.0 | 0.00 | 0.02 | 0.00 | 38 | 1020.2 |
| 20260503175516 | 62 | 308 | 2.0 | 4.0 | 0.00 | 0.02 | 0.00 | 37 | 1020.2 |
| 20260503174516 | 61 | 303 | 1.0 | 5.0 | 0.00 | 0.02 | 0.00 | 35 | 1020.4 |
| 20260503173516 | 61 | 272 | 1.0 | 4.0 | 0.00 | 0.02 | 0.00 | 37 | 1020.5 |
| 20260503172516 | 61 | 309 | 1.0 | 6.0 | 0.00 | 0.02 | 0.00 | 37 | 1020.6 |
| 20260503171516 | 61 | 271 | 0.0 | 2.0 | 0.00 | 0.02 | 0.00 | 37 | 1020.8 |
| 20260503170536 | 60 | 317 | 2.0 | 4.0 | 0.00 | 0.02 | 0.00 | 38 | 1021.0 |
| 20260503150516 | 53 | 38 | 0.0 | 4.0 | 0.00 | 0.02 | 0.00 | 45 | 1021.8 |
| 20260503130537 | 44 | 0.0 | 0.0 | 0.00 | 0.02 | 0.00 | 86 | 1021.6 | |
| 20260503110516 | 43 | 0.0 | 0.0 | 0.00 | 0.02 | 0.00 | 86 | 1020.4 | |
| 20260503081516 | 44 | 0.0 | 0.0 | 0.00 | 0.02 | 0.00 | 86 | 1020.1 | |
| 20260503080536 | 45 | 0.0 | 0.0 | 0.00 | 0.02 | 0.00 | 87 | 1019.9 | |
| 20260503072516 | 45 | 0.0 | 0.0 | 0.00 | 0.02 | 0.00 | 86 | 1019.9 | |
| 20260503071517 | 45 | 0.0 | 0.0 | 0.00 | 0.02 | 0.00 | 86 | 1019.8 | |
| 20260503070516 | 45 | 0.0 | 0.0 | 0.00 | 0.02 | 0.00 | 86 | 1019.9 |